National Weather Service Raw Text Product

Displaying AFOS PIL: RWRIA Received: 2017-08-13 10:00 UTC


105 
ASUS43 KDMX 131006
RWRIA 

WEATHER ROUNDUP FOR IOWA
NATIONAL WEATHER SERVICE DES MOINES IA
500 AM CDT SUN AUG 13 2017

NOTE: "FAIR" INDICATES FEW OR NO CLOUDS BELOW 12,000 FEET WITH NO
SIGNIFICANT WEATHER AND/OR OBSTRUCTIONS TO VISIBILITY.

* - THESE STATIONS ARE NOT NWS STATIONS...THUS NOT UNDER NWS
QUALITY CONTROL.  THEY ALSO DO NOT REPORT WEATHER SUCH 
AS PRECIPITATION OR FOG.  

IAZ001>003-012>014-020>022-031>034-043>046-131100-
   NORTHWEST IOWA
  
CITY           SKY/WX    TMP DP  RH WIND       PRES   REMARKS
CARROLL *      CLOUDY    63  61  94 SE5       30.00F                  
CHEROKEE *     DRIZZLE   62  57  83 S3        29.99S                  
DENISON *      CLOUDY    63  57  82 S12G17    30.00F                  
LE MARS *      CLOUDY    66  57  72 CALM      29.96S                  
ORANGE CITY *  CLOUDY    63  59  88 CALM      29.98S                  
SHELDON *      CLOUDY    63  55  77 SE5       29.97S                  
SIOUX CITY     LGT RAIN  65  62  90 S8        29.95S                  
SPENCER        MOCLDY    63  55  75 SE8       30.00F                  
STORM LAKE *   CLOUDY    61  57  88 SE7       29.99S                  
$$
 
IAZ055>058-069>071-079>083-090>094-131100-
   SOUTHWEST IOWA
  
CITY           SKY/WX    TMP DP  RH WIND       PRES   REMARKS
ATLANTIC *     CLOUDY    63  59  88 CALM      30.00F                  
AUDUBON *      CLOUDY    61  57  88 CALM      30.02F                  
CLARINDA *       N/A     57  57 100 CALM      30.03F                  
COUNCIL BLFS * CLOUDY    63  59  88 SE7       29.99F                  
CRESTON *      MOCLDY    61  55  82 SE5       30.04S                  
HARLAN  *      MOCLDY    61  61 100 CALM      30.03F                  
LAMONI         CLOUDY    62  56  80 E3        30.03F                  
RED OAK *      CLOUDY    61  59  94 CALM      30.00F                  
SHENANDOAH *   MOCLDY    61  59  94 CALM      30.00F                  
$$
 
IAZ047>049-059>061-072>074-084-131100-
   CENTRAL IOWA
  
CITY           SKY/WX    TMP DP  RH WIND       PRES   REMARKS
AMES           MOCLDY    58  55  90 SE3       30.02F                  
ANKENY *       CLOUDY    63  55  77 S6        30.03F                  
BOONE *        CLOUDY    59  54  82 SE8       30.01F                  
CHARITON *     MOCLDY    61  55  82 SE7       30.04F                  
DES MOINES     CLOUDY    64  55  72 SE10      30.02F                  
GRINNELL*      CLOUDY    58  52  81 SE3       30.07S                  
KNOXVILLE *    MOCLDY    61  54  77 SE8       30.03F                  
MARSHALLTOWN   CLOUDY    56  53  90 SE7       30.04F                  
NEWTON *       CLOUDY    57  54  88 SE7       30.05S                  
PELLA *        MOCLDY    59  54  82 SE5       30.06S                  
PERRY *          N/A     60  58  94 SE5       30.02F                  
$$
 
IAZ004>006-015-016-023>025-035-036-131100-
   NORTH CENTRAL IOWA
  
CITY           SKY/WX    TMP DP  RH WIND       PRES   REMARKS
ALGONA *       MOCLDY    61  52  72 SE9       30.02F                  
CLARION *      CLOUDY    61  54  77 SE9       30.03F                  
ESTHERVILLE    CLOUDY    58  55  90 SE6       30.00F                  
FORT DODGE *   PTCLDY    63  52  67 SE7       30.02F                  
MASON CITY     MOCLDY    53  49  86 SE5       30.07F                  
FOREST CITY *    N/A     55  52  88 SE5       30.05S                  
WEBSTER CITY * MOCLDY    59  52  77 SE8       30.00F                  
IOWA FALLS *     N/A     57  53  87 SE5       30.06S                  
$$

IAZ007>011-017>019-026>030-037>042-050>054-066-131100-
   NORTHEAST IOWA
  
CITY           SKY/WX    TMP DP  RH WIND       PRES   REMARKS
CEDAR RAPIDS   CLOUDY    53  53 100 CALM      30.06F                  
CHARLES CITY * CLEAR     55  52  88 SE3       30.07F                  
CLINTON *      PTCLDY    53  52  96 NE5       30.07F                  
DECORAH *      PTCLDY    54  50  87 CALM      30.07S                  
DUBUQUE        MOCLDY    55  51  86 CALM      30.08S                  
MONTICELLO *   CLOUDY    52  52 100 CALM      30.07S                  
OELWEIN *      PTCLDY    54  54 100 SE5       30.08S                  
WATERLOO       CLOUDY    52  49  89 NE5       30.05F                  
$$
 
IAZ064-065-067-068-078-131100-
   EAST CENTRAL IOWA
  
CITY           SKY/WX    TMP DP  RH WIND       PRES   REMARKS
DAVENPORT      CLEAR     50  49  96 CALM      30.08F                  
IOWA CITY      PTCLDY    56  52  86 CALM      30.08F                  
MT. PLEASANT * CLEAR     53  52  99 E5        30.07F                  
MUSCATINE *    MOCLDY    52  50  93 CALM      30.07S FOG              
QUAD CITIES    CLEAR     52  49  89 CALM      30.07F                  
$$
 
IAZ062-063-075>077-085>089-095>099-131100-
   SOUTHEAST IOWA
  
CITY           SKY/WX    TMP DP  RH WIND       PRES   REMARKS
BURLINGTON     CLEAR     55  54  96 N3        30.06F                  
FAIRFIELD *    PTCLDY    54  50  87 E5        30.05F                  
FORT MADISON * CLEAR     54  54 100 CALM      30.07F                  
KEOKUK *       CLEAR     55  55 100 NE5       30.05F                  
OSKALOOSA *      N/A     55  52  89 SE3       30.05F                  
CENTERVILLE *    N/A     55  55 100 CALM      30.06F                  
OTTUMWA        PTCLDY    56  54  93 SE5       30.05F                  
WASHINGTON *   CLOUDY    52  52 100 CALM      30.07F                  
$$

ABBREVIATIONS USED IN REMARKS
   TC - TEMPERATURES IN CELSIUS
  WCI - WIND CHILL INDEX
   HX - HEAT INDEX
  VSB - VISIBILITY  
$$

  

987 
ASUS43 KDMX 131001
RWRIA 

WEATHER ROUNDUP FOR IOWA
NATIONAL WEATHER SERVICE DES MOINES IA
500 AM CDT SUN AUG 13 2017

NOTE: "FAIR" INDICATES FEW OR NO CLOUDS BELOW 12,000 FEET WITH NO
SIGNIFICANT WEATHER AND/OR OBSTRUCTIONS TO VISIBILITY.

* - THESE STATIONS ARE NOT NWS STATIONS...THUS NOT UNDER NWS
QUALITY CONTROL.  THEY ALSO DO NOT REPORT WEATHER SUCH 
AS PRECIPITATION OR FOG.  

IAZ001>003-012>014-020>022-031>034-043>046-131100-
   NORTHWEST IOWA
  
CITY           SKY/WX    TMP DP  RH WIND       PRES   REMARKS
CARROLL *      CLOUDY    63  61  94 SE5       30.00F                  
CHEROKEE *     DRIZZLE   62  57  83 S3        29.99S                  
DENISON *      CLOUDY    63  57  82 S12G17    30.00F                  
LE MARS *      CLOUDY    66  57  72 CALM      29.96S                  
ORANGE CITY *  CLOUDY    63  59  88 CALM      29.98S                  
SHELDON *      CLOUDY    63  55  77 SE5       29.97S                  
SIOUX CITY     LGT RAIN  65  62  90 S8        29.95S                  
SPENCER        MOCLDY    63  55  75 SE8       30.00F                  
STORM LAKE *   CLOUDY    61  57  88 SE7       29.99S                  
$$
 
IAZ055>058-069>071-079>083-090>094-131100-
   SOUTHWEST IOWA
  
CITY           SKY/WX    TMP DP  RH WIND       PRES   REMARKS
ATLANTIC *     CLOUDY    63  59  88 CALM      30.00F                  
AUDUBON *      CLOUDY    61  57  88 CALM      30.02F                  
CLARINDA *       N/A     57  57 100 CALM      30.03F                  
COUNCIL BLFS * CLOUDY    63  59  88 SE7       29.99F                  
CRESTON *      MOCLDY    61  55  82 SE5       30.04S                  
HARLAN  *      MOCLDY    61  61 100 CALM      30.03F                  
LAMONI         CLOUDY    62  56  80 E3        30.03F                  
RED OAK *      CLOUDY    61  59  94 CALM      30.00F                  
SHENANDOAH *   MOCLDY    61  59  94 CALM      30.00F                  
$$
 
IAZ047>049-059>061-072>074-084-131100-
   CENTRAL IOWA
  
CITY           SKY/WX    TMP DP  RH WIND       PRES   REMARKS
AMES           MOCLDY    58  55  90 SE3       30.02F                  
ANKENY *       CLOUDY    63  55  77 S6        30.03F                  
BOONE *        CLOUDY    59  54  82 SE8       30.01F                  
CHARITON *     MOCLDY    61  55  82 SE7       30.04F                  
DES MOINES     CLOUDY    64  55  72 SE10      30.02F                  
GRINNELL*      CLOUDY    58  52  81 SE3       30.07S                  
KNOXVILLE *    MOCLDY    61  54  77 SE8       30.03F                  
MARSHALLTOWN   CLOUDY    56  53  90 SE7       30.04F                  
NEWTON *       CLOUDY    57  54  88 SE7       30.05S                  
PELLA *        MOCLDY    59  54  82 SE5       30.06S                  
PERRY *          N/A     60  58  94 SE5       30.02F                  
$$
 
IAZ004>006-015-016-023>025-035-036-131100-
   NORTH CENTRAL IOWA
  
CITY           SKY/WX    TMP DP  RH WIND       PRES   REMARKS
ALGONA *       MOCLDY    61  52  72 SE9       30.02F                  
CLARION *      CLOUDY    61  54  77 SE9       30.03F                  
ESTHERVILLE    CLOUDY    58  55  90 SE6       30.00F                  
FORT DODGE *   PTCLDY    63  52  67 SE7       30.02F                  
MASON CITY     MOCLDY    53  49  86 SE5       30.07F                  
FOREST CITY *    N/A     55  52  88 SE5       30.05S                  
WEBSTER CITY * MOCLDY    59  52  77 SE8       30.00F                  
IOWA FALLS *     N/A     57  53  87 SE5       30.06S                  
$$

IAZ007>011-017>019-026>030-037>042-050>054-066-131100-
   NORTHEAST IOWA
  
CITY           SKY/WX    TMP DP  RH WIND       PRES   REMARKS
CEDAR RAPIDS   CLOUDY    53  53 100 CALM      30.06F                  
CHARLES CITY * CLEAR     55  52  88 SE3       30.07F                  
CLINTON *      PTCLDY    53  52  96 NE5       30.07F                  
DECORAH *      PTCLDY    54  50  87 CALM      30.07S                  
DUBUQUE        MOCLDY    55  51  86 CALM      30.08S                  
MONTICELLO *   CLOUDY    52  52 100 CALM      30.07S                  
OELWEIN *      PTCLDY    54  54 100 SE5       30.08S                  
WATERLOO       CLOUDY    52  49  89 NE5       30.05F                  
$$
 
IAZ064-065-067-068-078-131100-
   EAST CENTRAL IOWA
  
CITY           SKY/WX    TMP DP  RH WIND       PRES   REMARKS
DAVENPORT      CLEAR     50  49  96 CALM      30.08F                  
IOWA CITY      PTCLDY    56  52  86 CALM      30.08F                  
MUSCATINE *    MOCLDY    52  50  93 CALM      30.07S FOG              
QUAD CITIES    CLEAR     52  49  89 CALM      30.07F                  
$$
 
IAZ062-063-075>077-085>089-095>099-131100-
   SOUTHEAST IOWA
  
CITY           SKY/WX    TMP DP  RH WIND       PRES   REMARKS
BURLINGTON     CLEAR     55  54  96 N3        30.06F                  
FAIRFIELD *    PTCLDY    54  50  87 E5        30.05F                  
FORT MADISON * CLEAR     54  54 100 CALM      30.07F                  
KEOKUK *       CLEAR     55  55 100 NE5       30.05F                  
OSKALOOSA *      N/A     55  52  89 SE3       30.05F                  
OTTUMWA        PTCLDY    56  54  93 SE5       30.05F                  
WASHINGTON *   CLOUDY    52  52 100 CALM      30.07F                  
$$

ABBREVIATIONS USED IN REMARKS
   TC - TEMPERATURES IN CELSIUS
  WCI - WIND CHILL INDEX
   HX - HEAT INDEX
  VSB - VISIBILITY  
$$